Denver Centennial, CO

12:19 AM MDT on July 25, 2017 (GMT -0600)
Centennial

Weather History for KAPA - October, 2013

Change the Weather History Date:

Wednesday, October 2, 2013

  Actual Average Record
Temperature  
Mean Temperature 58 °F -  
Max Temperature 73 °F 67 °F 84 °F (2005)
Min Temperature 42 °F 39 °F 28 °F (1999)
Degree Days  
Heating Degree Days 7    
Month to date heating degree days 13  
Growing Degree Days 8 (Base 50)    
Moisture  
Dew Point 38 °F    
Average Humidity 53    
Maximum Humidity 83    
Minimum Humidity 23    
Precipitation  
Precipitation 0.00 in - - ()
Month to date precipitation 0.00  
Year to date precipitation 16.81  
Sea Level Pressure  
Sea Level Pressure 29.86 in    
Wind  
Wind Speed 4 mph (East)    
Max Wind Speed 15 mph    
Max Gust Speed 22 mph    
Visibility 10 miles    
Events      
Averages and records for this station are not official NWS values.
T = Trace of Precipitation, MM = Missing Value Source: NWS Daily Summary

Daily Weather History Graph

Daily Weather History Graph

Search for Another Location

Airport or City:

Trip Planner

Search our weather history database for the weather conditions in past years. The results will help you decide how hot, cold, wet, or windy it might be!

Date:

Astronomy

Oct. 02, 2013 Rise Set
Actual Time 6:56 AM MDT 6:39 PM MDT
Civil Twilight 6:29 AM MDT 7:06 PM MDT
Nautical Twilight 5:58 AM MDT 7:37 PM MDT
Astronomical Twilight 5:27 AM MDT 8:09 PM MDT
Moon 4:32 AM MDT (10/2) 5:16 PM MDT (10/2)
Length of Visible Light 12h 36m
Length of Day
11h 42m
Waning Crescent, 6% of the Moon is Illuminated
Oct 2
Waning Crescent
Oct 4
New
Oct 11
First Quarter
Oct 18
Full
Oct 26
Last Quarter

Hourly Weather History & Observations

Time (MDT) Temp. Windchill Dew Point Humidity Pressure Visibility Wind Dir Wind Speed Gust Speed Precip Events Conditions
12:53 AM 52.0 °F - 39.0 °F 61% 29.86 in 10.0 mi WSW 5.8 mph - N/A   Clear
1:53 AM 52.0 °F - 39.0 °F 61% 29.86 in 10.0 mi Calm Calm - N/A   Clear
2:53 AM 46.9 °F - 37.9 °F 71% 29.86 in 10.0 mi South 6.9 mph - N/A   Clear
3:53 AM 48.0 °F - 37.9 °F 68% 29.84 in 10.0 mi Calm Calm - N/A   Clear
4:53 AM 52.0 °F - 36.0 °F 54% 29.83 in 10.0 mi SW 4.6 mph - N/A   Clear
5:53 AM 42.1 °F - 37.0 °F 82% 29.89 in 10.0 mi Calm Calm - N/A   Clear
6:53 AM 45.0 °F 41.8 °F 37.0 °F 74% 29.91 in 10.0 mi ESE 5.8 mph - N/A   Scattered Clouds
7:53 AM 44.1 °F - 39.9 °F 85% 29.94 in 10.0 mi Calm Calm - N/A   Scattered Clouds
8:53 AM 59.0 °F - 39.0 °F 48% 29.91 in 10.0 mi Calm Calm - N/A   Scattered Clouds
9:53 AM 64.9 °F - 35.1 °F 33% 29.90 in 10.0 mi Calm Calm - N/A   Scattered Clouds
10:53 AM 69.1 °F - 33.1 °F 26% 29.88 in 10.0 mi Calm Calm - N/A   Scattered Clouds
11:53 AM 71.1 °F - 32.0 °F 24% 29.87 in 10.0 mi Calm Calm - N/A   Scattered Clouds
12:53 PM 72.0 °F - 34.0 °F 25% 29.86 in 10.0 mi East 11.5 mph - N/A   Scattered Clouds
1:53 PM 72.0 °F - 34.0 °F 25% 29.83 in 10.0 mi East 10.4 mph - N/A   Scattered Clouds
2:53 PM 73.0 °F - 33.1 °F 23% 29.82 in 10.0 mi East 9.2 mph 19.6 mph N/A   Scattered Clouds
3:53 PM 72.0 °F - 35.1 °F 26% 29.81 in 10.0 mi East 11.5 mph - N/A   Scattered Clouds
4:53 PM 71.1 °F - 36.0 °F 28% 29.79 in 10.0 mi East 12.7 mph - N/A   Scattered Clouds
5:53 PM 69.1 °F - 37.9 °F 32% 29.83 in 10.0 mi ESE 8.1 mph - N/A   Scattered Clouds
6:53 PM 66.0 °F - 41.0 °F 40% 29.83 in 10.0 mi East 6.9 mph - N/A   Mostly Cloudy
7:53 PM 61.0 °F - 43.0 °F 52% 29.87 in 10.0 mi ENE 5.8 mph - N/A   Scattered Clouds
8:53 PM 57.9 °F - 43.0 °F 58% 29.86 in 10.0 mi Calm Calm - N/A   Clear
9:53 PM 57.0 °F - 43.0 °F 59% 29.86 in 10.0 mi NNE 8.1 mph - N/A   Clear
10:53 PM 54.0 °F - 42.1 °F 64% 29.84 in 10.0 mi NNE 3.5 mph - N/A   Clear
11:53 PM 51.1 °F - 39.9 °F 66% 29.81 in 10.0 mi East 5.8 mph - N/A   Clear